Location: *
(60.1759°S, 155.0663°W)
Time: 04:58:26
(UTC+00:00)

NOSS 3-1 (C) - Pass Details

Date: 17 September 2019
Orbit: 771 x 1438 km, 63.4° (Epoch: 07 October)

Event Time Altitude Azimuth Distance (km) Brightness Sun altitude
Rises 14:38:44 0° 233° (SW) 3,968 6.4 -13.6°
Reaches altitude 10° 14:42:01 10° 244° (WSW) 2,887 5.6 -13.3°
Maximum altitude 14:47:22 26° 297° (WNW) 1,787 4.3 -12.6°
Drops below altitude 10° 14:52:07 10° 352° (N) 2,531 5.4 -12.1°
Sets 14:54:49 0° 4° (N) 3,388 6.2 -11.7°
